Tasiilaq

KL  EN  DA
ASIAQ
Weather Now GREENLAND SURVEY
Updated [WGT/WGST] Temperature [°C] Wind [m/s] Air pressure [hPa] Relative humidity [%] Precipitation [mm]
Present Wind chill Speed Max
24.09 01:00-2,7-6,02,3 ⇒3,91011550,0
24.09 00:00-3,1-5,11,4 ⇒3,61011560,0
23.09 23:00-2,9-6,92,9 ⇒3,61011560,0
23.09 22:00-2,4-5,11,9 ⇒3,51011550,0
23.09 21:00-2,3-5,92,6 ⇒3,71010560,0
23.09 20:00-1,6-4,42,1 ⇒3,11010490,0
23.09 19:00-1,3-4,82,7 ⇒3,21010480,0
23.09 18:00-0,9-2,81,5 ⇒3,31010490,0
23.09 17:00-1,60,01,3 ⇑2,11009610,0
23.09 16:00-0,40,01,3 ⇗2,41009580,0
23.09 15:000,00,00,9 ⇗2,71008520,0
23.09 14:000,0-2,21,8 ⇒4,11008490,0
23.09 13:00-0,8-4,22,7 ⇒3,91008530,0
23.09 12:00-0,90,01,3 ⇒3,81008590,0
23.09 11:00-0,9-3,82,2 ⇘7,71007600,0
23.09 10:00-1,5-6,14,0 ⇓6,81007620,0
23.09 09:00-2,1-5,42,4 ⇘7,11006680,0
23.09 08:00-2,9-8,44,8 ⇓8,11006750,0
23.09 07:00-3,4-9,04,8 ⇓8,01005760,0
23.09 06:00-3,3-9,04,9 ⇓8,21005720,0
23.09 05:00-3,5-8,53,9 ⇓8,91005850,0
23.09 04:00-4,0-9,54,4 ⇓8,81004840,0
23.09 03:00-2,6-7,03,4 ⇓6,51004640,0
23.09 02:00-2,6-7,03,4 ⇓6,31003700,0
23.09 01:00-2,1-5,72,7 ⇓5,41003760,0
Position: (65.611111111,-37.63666666)

[Back]